| time (UTC) | temp F | wind direction | speed MPH | gust MPH | rain 1hr in | rain 24hr in | rain mn in | humidity % | barometer mb |
| 20260906151803 | 68 | 69 | 2.0 | 5.0 | 0.00 | 0.00 | 0.00 | 94 | 1004.7 |
| 20260906150903 | 68 | 69 | 1.0 | 5.0 | 0.00 | 0.00 | 0.00 | 94 | 1004.7 |
| 20260906150003 | 68 | 69 | 1.0 | 2.0 | 0.00 | 0.00 | 0.00 | 94 | 1004.8 |
| 20260906145403 | 68 | 69 | 1.0 | 4.0 | 0.00 | 0.00 | 0.00 | 94 | 1004.7 |
| 20260906144503 | 68 | 69 | 1.0 | 4.0 | 0.00 | 0.00 | 0.00 | 94 | 1004.5 |
| 20260906143603 | 67 | 69 | 2.0 | 4.0 | 0.00 | 0.00 | 0.00 | 94 | 1004.5 |
| 20260906142703 | 67 | 67 | 2.0 | 5.0 | 0.00 | 0.00 | 0.00 | 94 | 1004.5 |
| 20260906142017 | 67 | 66 | 2.0 | 5.0 | 0.00 | 0.00 | 0.00 | 94 | 1004.6 |
| 20260906140903 | 67 | 66 | 3.0 | 5.0 | 0.00 | 0.00 | 0.00 | 95 | 1004.6 |
| 20260906140003 | 66 | 65 | 2.0 | 5.0 | 0.00 | 0.00 | 0.00 | 95 | 1004.5 |
| 20260906135619 | 66 | 65 | 2.0 | 5.0 | 0.00 | 0.00 | 0.00 | 95 | 1004.6 |
| 20260906134718 | 66 | 65 | 1.0 | 4.0 | 0.00 | 0.00 | 0.00 | 95 | 1004.6 |
| 20260906133603 | 65 | 65 | 1.0 | 2.0 | 0.00 | 0.00 | 0.00 | 95 | 1004.6 |
| 20260906132703 | 64 | 65 | 1.0 | 2.0 | 0.00 | 0.00 | 0.00 | 94 | 1004.6 |
| 20260906132016 | 64 | 65 | 1.0 | 2.0 | 0.00 | 0.00 | 0.00 | 95 | 1004.6 |
| 20260906131119 | 64 | 65 | 0.0 | 2.0 | 0.00 | 0.00 | 0.00 | 94 | 1004.4 |
| 20260906130219 | 63 | 65 | 0.0 | 1.0 | 0.00 | 0.00 | 0.00 | 94 | 1004.3 |
| 20260906125403 | 63 | 65 | 1.0 | 2.0 | 0.00 | 0.00 | 0.00 | 94 | 1004.2 |
| 20260906124503 | 63 | 65 | 1.0 | 2.0 | 0.00 | 0.00 | 0.00 | 94 | 1004.1 |
| 20260906123817 | 62 | 65 | 1.0 | 2.0 | 0.00 | 0.00 | 0.00 | 93 | 1004.0 |
| 20260906122703 | 62 | 65 | 1.0 | 2.0 | 0.00 | 0.00 | 0.00 | 93 | 1004.1 |
| 20260906121803 | 62 | 65 | 0.0 | 1.0 | 0.00 | 0.00 | 0.00 | 93 | 1004.1 |
| 20260906120904 | 62 | 65 | 0.0 | 2.0 | 0.00 | 0.00 | 0.00 | 93 | 1004.1 |
| 20260906120003 | 62 | 65 | 1.0 | 2.0 | 0.00 | 0.00 | 0.00 | 93 | 1003.9 |
| 20260906115403 | 62 | 65 | 1.0 | 2.0 | 0.00 | 0.00 | 0.00 | 93 | 1003.8 |
| 20260906114503 | 62 | 65 | 0.0 | 1.0 | 0.00 | 0.00 | 0.00 | 93 | 1003.8 |
| 20260906113603 | 62 | 65 | 1.0 | 1.0 | 0.00 | 0.00 | 0.00 | 93 | 1003.5 |
| 20260906112703 | 62 | 65 | 1.0 | 1.0 | 0.00 | 0.00 | 0.00 | 93 | 1003.3 |
| 20260906111803 | 62 | 65 | 1.0 | 1.0 | 0.00 | 0.00 | 0.00 | 93 | 1003.3 |
| 20260906111119 | 62 | 65 | 1.0 | 2.0 | 0.00 | 0.00 | 0.00 | 93 | 1003.2 |
| 20260906110218 | 62 | 65 | 1.0 | 2.0 | 0.00 | 0.00 | 0.00 | 93 | 1003.2 |
| 20260906105403 | 62 | 65 | 1.0 | 2.0 | 0.00 | 0.00 | 0.00 | 93 | 1003.2 |
| 20260906104503 | 62 | 65 | 0.0 | 1.0 | 0.00 | 0.00 | 0.00 | 93 | 1003.1 |
| 20260906103603 | 62 | 65 | 0.0 | 1.0 | 0.00 | 0.00 | 0.00 | 93 | 1003.2 |
| 20260906102703 | 63 | 65 | 0.0 | 1.0 | 0.00 | 0.00 | 0.00 | 93 | 1003.2 |
| 20260906101803 | 63 | 65 | 0.0 | 1.0 | 0.00 | 0.00 | 0.00 | 93 | 1003.2 |
| 20260906100903 | 63 | 0 | 0.0 | 0.0 | 0.00 | 0.00 | 0.00 | 93 | 1003.2 |
| 20260906100003 | 63 | 0 | 0.0 | 0.0 | 0.00 | 0.00 | 0.00 | 93 | 1003.0 |
| 20260906095403 | 63 | 65 | 0.0 | 1.0 | 0.00 | 0.00 | 0.00 | 93 | 1002.9 |
| 20260906094504 | 63 | 65 | 0.0 | 1.0 | 0.00 | 0.00 | 0.00 | 93 | 1002.9 |
| 20260906093603 | 63 | 65 | 0.0 | 1.0 | 0.00 | 0.00 | 0.00 | 93 | 1003.0 |
| 20260906092703 | 63 | 65 | 1.0 | 1.0 | 0.00 | 0.00 | 0.00 | 93 | 1003.0 |
| 20260906091803 | 63 | 65 | 1.0 | 1.0 | 0.00 | 0.00 | 0.00 | 93 | 1002.9 |
| 20260906090903 | 63 | 65 | 0.0 | 1.0 | 0.00 | 0.00 | 0.00 | 93 | 1003.1 |
| 20260906090003 | 63 | 65 | 0.0 | 1.0 | 0.00 | 0.00 | 0.00 | 93 | 1003.0 |
| 20260906085403 | 63 | 65 | 0.0 | 1.0 | 0.00 | 0.00 | 0.00 | 93 | 1003.0 |
| 20260906084716 | 63 | 65 | 0.0 | 1.0 | 0.00 | 0.00 | 0.00 | 93 | 1003.0 |
| 20260906083603 | 63 | 65 | 0.0 | 1.0 | 0.00 | 0.00 | 0.00 | 93 | 1003.0 |
| 20260906082919 | 64 | 65 | 0.0 | 1.0 | 0.00 | 0.00 | 0.00 | 93 | 1003.0 |
| 20260906081803 | 64 | 65 | 1.0 | 1.0 | 0.00 | 0.00 | 0.00 | 92 | 1003.1 |
| 20260906080903 | 64 | 65 | 0.0 | 1.0 | 0.00 | 0.00 | 0.00 | 93 | 1003.0 |
| 20260906080003 | 64 | 0 | 0.0 | 0.0 | 0.00 | 0.00 | 0.00 | 93 | 1003.0 |
| 20260906075403 | 64 | 65 | 0.0 | 1.0 | 0.00 | 0.00 | 0.00 | 93 | 1003.0 |
| 20260906074716 | 64 | 65 | 1.0 | 1.0 | 0.00 | 0.00 | 0.00 | 92 | 1003.1 |
| 20260906073819 | 64 | 65 | 1.0 | 1.0 | 0.00 | 0.00 | 0.00 | 92 | 1003.1 |
| 20260906072703 | 64 | 65 | 0.0 | 1.0 | 0.00 | 0.00 | 0.00 | 92 | 1003.1 |
| 20260906071803 | 64 | 0 | 0.0 | 0.0 | 0.00 | 0.00 | 0.00 | 92 | 1003.0 |
| 20260906070903 | 64 | 0 | 0.0 | 0.0 | 0.00 | 0.00 | 0.00 | 92 | 1002.9 |
| 20260906070003 | 65 | 0 | 0.0 | 0.0 | 0.00 | 0.00 | 0.00 | 92 | 1003.0 |
| 20260906065403 | 64 | 0 | 0.0 | 0.0 | 0.00 | 0.00 | 0.00 | 92 | 1002.8 |
| 20260906064503 | 64 | 65 | 0.0 | 1.0 | 0.00 | 0.00 | 0.00 | 91 | 1002.9 |
| 20260906063603 | 64 | 0 | 0.0 | 0.0 | 0.00 | 0.00 | 0.00 | 90 | 1002.9 |
| 20260906062703 | 64 | 0 | 0.0 | 0.0 | 0.00 | 0.00 | 0.00 | 90 | 1002.9 |
| 20260906061803 | 64 | 0 | 0.0 | 0.0 | 0.00 | 0.00 | 0.00 | 90 | 1003.0 |
| 20260906060903 | 64 | 0 | 0.0 | 0.0 | 0.00 | 0.00 | 0.00 | 90 | 1002.9 |
| 20260906060003 | 64 | 0 | 0.0 | 0.0 | 0.00 | 0.00 | 0.00 | 90 | 1002.9 |
| 20260906055403 | 64 | 0 | 0.0 | 0.0 | 0.00 | 0.00 | 0.00 | 90 | 1002.9 |
| 20260906054503 | 65 | 0 | 0.0 | 0.0 | 0.00 | 0.00 | 0.00 | 90 | 1002.9 |
| 20260906053603 | 65 | 0 | 0.0 | 0.0 | 0.00 | 0.00 | 0.00 | 90 | 1002.9 |
| 20260906052703 | 65 | 0 | 0.0 | 0.0 | 0.00 | 0.00 | 0.00 | 90 | 1002.8 |
| 20260906052017 | 66 | 0 | 0.0 | 0.0 | 0.00 | 0.00 | 0.00 | 90 | 1002.8 |
| 20260906050903 | 66 | 0 | 0.0 | 0.0 | 0.00 | 0.00 | 0.00 | 90 | 1002.8 |
| 20260906050003 | 66 | 0 | 0.0 | 0.0 | 0.00 | 0.00 | 0.00 | 90 | 1002.6 |
| 20260906045403 | 66 | 0 | 0.0 | 0.0 | 0.00 | 0.00 | 0.00 | 90 | 1002.7 |
| 20260906044503 | 66 | 0 | 0.0 | 0.0 | 0.00 | 0.00 | 0.00 | 90 | 1002.6 |
| 20260906043603 | 67 | 0 | 0.0 | 0.0 | 0.00 | 0.00 | 0.00 | 90 | 1002.4 |
| 20260906042703 | 67 | 0 | 0.0 | 0.0 | 0.00 | 0.00 | 0.00 | 90 | 1002.2 |
| 20260906042017 | 67 | 65 | 0.0 | 2.0 | 0.00 | 0.00 | 0.00 | 90 | 1002.1 |
| 20260906040903 | 68 | 65 | 2.0 | 4.0 | 0.00 | 0.00 | 0.00 | 90 | 1002.0 |
| 20260906040003 | 68 | 65 | 0.0 | 2.0 | 0.00 | 0.00 | 0.00 | 91 | 1002.1 |
| 20260906035403 | 68 | 65 | 0.0 | 2.0 | 0.00 | 0.00 | 0.00 | 91 | 1002.0 |
| 20260906034718 | 68 | 65 | 0.0 | 1.0 | 0.00 | 0.00 | 0.00 | 90 | 1001.9 |
| 20260906033603 | 69 | 0 | 0.0 | 0.0 | 0.00 | 0.00 | 0.00 | 90 | 1002.0 |
| 20260906032917 | 69 | 0 | 0.0 | 0.0 | 0.00 | 0.00 | 0.00 | 90 | 1002.0 |
| 20260906031803 | 69 | 65 | 0.0 | 4.0 | 0.00 | 0.00 | 0.00 | 90 | 1001.9 |
| 20260906030903 | 69 | 65 | 2.0 | 4.0 | 0.00 | 0.00 | 0.00 | 90 | 1001.6 |
| 20260906030003 | 70 | 65 | 2.0 | 4.0 | 0.00 | 0.00 | 0.00 | 89 | 1001.6 |
| 20260906025619 | 70 | 65 | 2.0 | 4.0 | 0.00 | 0.00 | 0.00 | 89 | 1001.6 |
| 20260906024503 | 70 | 65 | 2.0 | 4.0 | 0.00 | 0.00 | 0.00 | 89 | 1001.6 |
| 20260906023603 | 70 | 65 | 0.0 | 2.0 | 0.00 | 0.00 | 0.00 | 89 | 1001.7 |
| 20260906022703 | 70 | 65 | 1.0 | 2.0 | 0.00 | 0.00 | 0.00 | 89 | 1001.6 |
| 20260906021803 | 71 | 65 | 1.0 | 2.0 | 0.00 | 0.00 | 0.00 | 88 | 1001.6 |
| 20260906020903 | 71 | 65 | 1.0 | 2.0 | 0.00 | 0.00 | 0.00 | 88 | 1001.5 |
| 20260906020219 | 71 | 65 | 1.0 | 2.0 | 0.00 | 0.00 | 0.00 | 88 | 1001.5 |
| 20260906015403 | 71 | 65 | 1.0 | 2.0 | 0.00 | 0.00 | 0.00 | 88 | 1001.2 |
| 20260906014718 | 71 | 65 | 1.0 | 4.0 | 0.00 | 0.00 | 0.00 | 87 | 1001.3 |
| 20260906013603 | 72 | 65 | 2.0 | 2.0 | 0.00 | 0.00 | 0.00 | 87 | 1001.1 |
| 20260906012703 | 72 | 65 | 1.0 | 2.0 | 0.00 | 0.00 | 0.00 | 87 | 1001.1 |
| 20260906011803 | 73 | 65 | 0.0 | 2.0 | 0.00 | 0.00 | 0.00 | 86 | 1001.1 |
| 20260906011119 | 73 | 65 | 0.0 | 1.0 | 0.00 | 0.00 | 0.00 | 86 | 1001.1 |
| 20260906010003 | 73 | 65 | 0.0 | 1.0 | 0.00 | 0.00 | 0.00 | 86 | 1001.0 |
| 20260906005403 | 73 | 0 | 0.0 | 0.0 | 0.00 | 0.00 | 0.00 | 86 | 1001.1 |
| 20260906004503 | 73 | 0 | 0.0 | 0.0 | 0.00 | 0.00 | 0.00 | 85 | 1001.0 |
| 20260906003603 | 74 | 0 | 0.0 | 0.0 | 0.00 | 0.00 | 0.00 | 84 | 1001.0 |
| 20260906002703 | 74 | 0 | 0.0 | 0.0 | 0.00 | 0.00 | 0.00 | 84 | 1001.0 |
| 20260906001803 | 74 | 65 | 0.0 | 1.0 | 0.00 | 0.00 | 0.00 | 83 | 1001.0 |
| 20260906000903 | 74 | 65 | 0.0 | 1.0 | 0.00 | 0.00 | 0.00 | 83 | 1001.0 |
| 20260906000003 | 74 | 65 | 1.0 | 2.0 | 0.00 | 0.00 | 0.00 | 82 | 1001.2 |
| 20260905235618 | 75 | 65 | 1.0 | 2.0 | 0.00 | 0.00 | 0.00 | 82 | 1001.2 |
| 20260905234503 | 75 | 65 | 1.0 | 2.0 | 0.00 | 0.00 | 0.00 | 82 | 1001.4 |
| 20260905233816 | 75 | 65 | 1.0 | 4.0 | 0.00 | 0.00 | 0.00 | 82 | 1001.3 |
| 20260905232703 | 75 | 65 | 1.0 | 2.0 | 0.00 | 0.00 | 0.00 | 82 | 1001.5 |
| 20260905231803 | 75 | 65 | 0.0 | 2.0 | 0.00 | 0.00 | 0.00 | 82 | 1001.5 |
| 20260905230903 | 75 | 65 | 0.0 | 1.0 | 0.00 | 0.00 | 0.00 | 82 | 1001.5 |
| 20260905230003 | 76 | 65 | 1.0 | 4.0 | 0.00 | 0.00 | 0.00 | 82 | 1001.3 |
| 20260905225617 | 76 | 65 | 1.0 | 4.0 | 0.00 | 0.00 | 0.00 | 82 | 1001.3 |
| 20260905224716 | 76 | 65 | 1.0 | 3.0 | 0.00 | 0.00 | 0.00 | 81 | 1001.2 |
| 20260905223603 | 76 | 65 | 1.0 | 4.0 | 0.00 | 0.00 | 0.00 | 81 | 1001.2 |
| 20260905222703 | 76 | 65 | 1.0 | 3.0 | 0.00 | 0.00 | 0.00 | 81 | 1001.1 |
| 20260905221803 | 76 | 65 | 1.0 | 3.0 | 0.00 | 0.00 | 0.00 | 81 | 1001.0 |
| 20260905220903 | 76 | 65 | 2.0 | 5.0 | 0.00 | 0.00 | 0.00 | 81 | 1001.0 |
| 20260905220003 | 76 | 65 | 2.0 | 5.0 | 0.00 | 0.00 | 0.00 | 80 | 1000.9 |
| 20260905212703 | 77 | 66 | 3.0 | 6.0 | 0.00 | 0.00 | 0.00 | 79 | 1000.8 |
| 20260905211803 | 77 | 66 | 2.0 | 5.0 | 0.00 | 0.00 | 0.00 | 81 | 1000.6 |
| 20260905210903 | 77 | 68 | 3.0 | 6.0 | 0.00 | 0.00 | 0.00 | 82 | 1000.7 |
| 20260905210003 | 76 | 69 | 2.0 | 6.0 | 0.00 | 0.00 | 0.00 | 81 | 1000.9 |
| 20260905205403 | 76 | 72 | 3.0 | 6.0 | 0.00 | 0.00 | 0.00 | 81 | 1000.9 |
| 20260905204503 | 76 | 73 | 2.0 | 5.0 | 0.00 | 0.00 | 0.00 | 82 | 1001.0 |
| 20260905203603 | 76 | 74 | 3.0 | 6.0 | 0.00 | 0.00 | 0.00 | 82 | 1001.1 |
| 20260905202703 | 76 | 78 | 2.0 | 5.0 | 0.00 | 0.00 | 0.00 | 82 | 1001.1 |
| 20260905201803 | 76 | 78 | 2.0 | 5.0 | 0.00 | 0.00 | 0.00 | 81 | 1001.2 |
| 20260905200903 | 76 | 78 | 1.0 | 5.0 | 0.00 | 0.00 | 0.00 | 82 | 1001.1 |
| 20260905200003 | 76 | 78 | 2.0 | 6.0 | 0.00 | 0.00 | 0.00 | 82 | 1001.2 |
| 20260905195403 | 76 | 78 | 2.0 | 6.0 | 0.00 | 0.00 | 0.00 | 82 | 1001.2 |
| 20260905194503 | 76 | 79 | 2.0 | 5.0 | 0.00 | 0.00 | 0.00 | 82 | 1001.1 |
| 20260905193603 | 76 | 79 | 2.0 | 5.0 | 0.00 | 0.00 | 0.00 | 82 | 1001.1 |
| 20260905192919 | 76 | 79 | 1.0 | 4.0 | 0.00 | 0.00 | 0.00 | 82 | 1001.1 |
| 20260905191803 | 77 | 79 | 2.0 | 6.0 | 0.00 | 0.00 | 0.00 | 82 | 1001.1 |
| 20260905190903 | 76 | 80 | 1.0 | 5.0 | 0.00 | 0.00 | 0.00 | 83 | 1001.1 |
| 20260905190003 | 76 | 81 | 2.0 | 5.0 | 0.00 | 0.00 | 0.00 | 83 | 1001.0 |
| 20260905185403 | 76 | 81 | 2.0 | 5.0 | 0.00 | 0.00 | 0.00 | 83 | 1001.1 |
| 20260905184503 | 76 | 81 | 1.0 | 4.0 | 0.00 | 0.00 | 0.00 | 83 | 1001.1 |
| 20260905183603 | 76 | 81 | 2.0 | 4.0 | 0.00 | 0.00 | 0.00 | 83 | 1001.2 |
| 20260905182919 | 76 | 81 | 2.0 | 5.0 | 0.00 | 0.00 | 0.00 | 83 | 1001.2 |
| 20260905182018 | 76 | 81 | 2.0 | 5.0 | 0.00 | 0.00 | 0.00 | 84 | 1001.2 |
| 20260905180903 | 76 | 81 | 2.0 | 5.0 | 0.00 | 0.00 | 0.00 | 84 | 1001.3 |
| 20260905180003 | 76 | 81 | 1.0 | 4.0 | 0.00 | 0.00 | 0.00 | 85 | 1001.3 |
| 20260905175616 | 76 | 81 | 1.0 | 4.0 | 0.00 | 0.00 | 0.00 | 85 | 1001.4 |
| 20260905174715 | 76 | 81 | 1.0 | 4.0 | 0.00 | 0.00 | 0.00 | 85 | 1001.5 |
| 20260905173603 | 75 | 81 | 1.0 | 4.0 | 0.00 | 0.00 | 0.00 | 85 | 1001.5 |
| 20260905172703 | 75 | 81 | 1.0 | 4.0 | 0.00 | 0.00 | 0.00 | 86 | 1001.5 |
| 20260905171803 | 75 | 81 | 1.0 | 2.0 | 0.00 | 0.00 | 0.00 | 87 | 1001.5 |
| 20260905171117 | 75 | 81 | 1.0 | 4.0 | 0.00 | 0.00 | 0.00 | 87 | 1001.4 |
| 20260905170003 | 74 | 81 | 1.0 | 4.0 | 0.00 | 0.00 | 0.00 | 87 | 1001.2 |
| 20260905165616 | 74 | 81 | 1.0 | 5.0 | 0.00 | 0.00 | 0.00 | 88 | 1001.2 |
| 20260905164503 | 74 | 81 | 2.0 | 4.0 | 0.00 | 0.00 | 0.00 | 88 | 1001.3 |
| 20260905163603 | 74 | 81 | 2.0 | 4.0 | 0.00 | 0.00 | 0.00 | 88 | 1001.2 |
| 20260905162703 | 73 | 81 | 2.0 | 4.0 | 0.00 | 0.00 | 0.00 | 89 | 1001.3 |
| 20260905161803 | 73 | 81 | 1.0 | 5.0 | 0.00 | 0.00 | 0.00 | 90 | 1001.3 |
| 20260905160903 | 73 | 81 | 1.0 | 4.0 | 0.00 | 0.00 | 0.00 | 90 | 1001.2 |
| 20260905160216 | 73 | 81 | 1.0 | 5.0 | 0.00 | 0.00 | 0.00 | 90 | 1001.3 |
| 20260905155403 | 73 | 81 | 1.0 | 4.0 | 0.00 | 0.00 | 0.00 | 90 | 1001.2 |
| 20260905154719 | 72 | 81 | 2.0 | 5.0 | 0.00 | 0.00 | 0.00 | 91 | 1001.2 |
| 20260905153603 | 72 | 82 | 2.0 | 5.0 | 0.00 | 0.00 | 0.00 | 92 | 1001.3 |
| 20260905152703 | 72 | 82 | 1.0 | 4.0 | 0.00 | 0.00 | 0.00 | 92 | 1001.2 |